This is the latest recevied weather packets stored in our database for station/object SR8WXL-13. If no packets are shown the sender has not sent any weather packets the latest 10 day(s).
| Time | Temp. | Humidity | Pressure | Rain* | Wind** | Luminosity | Snow |
|---|---|---|---|---|---|---|---|
| 1787863461 | 10° C | 94% | 1037 hPa | 0 mm | - | - | - |
| 1787862682 | 11.11° C | 93% | 1037 hPa | 0 mm | - | - | - |
| 1787861901 | 11.11° C | 93% | 1036.9 hPa | 0 mm | - | - | - |
| 1787861053 | 11.11° C | 93% | 1036.9 hPa | 0 mm | - | - | - |
| 1787860211 | 11.11° C | 93% | 1036.8 hPa | 0 mm | - | - | - |
| 1787859437 | 11.11° C | 92% | 1036.9 hPa | 0 mm | - | - | - |
| 1787858538 | 12.22° C | 91% | 1037 hPa | 0 mm | - | - | - |
| 1787857759 | 12.22° C | 90% | 1036.8 hPa | 0 mm | - | - | - |
| 1787856877 | 12.22° C | 89% | 1037.1 hPa | 0 mm | - | - | - |
| 1787856143 | 12.78° C | 87% | 1036.9 hPa | 0 mm | - | - | - |
| 1787855277 | 12.78° C | 85% | 1037.1 hPa | 0 mm | - | - | - |
| 1787854535 | 13.89° C | 82% | 1036.9 hPa | 0 mm | - | - | - |
| 1787853749 | 16.11° C | 75% | 1036.7 hPa | 0 mm | - | - | - |
| 1787852894 | 17.22° C | 70% | 1036.6 hPa | 0 mm | - | - | - |
| 1787852040 | 17.78° C | 67% | 1036.5 hPa | 0 mm | - | - | - |
| 1787851288 | 18.89° C | 63% | 1036.2 hPa | 0 mm | - | - | - |
| 1787850525 | 18.89° C | 60% | 1036.2 hPa | 0 mm | - | - | - |
| 1787849640 | 20° C | 58% | 1036.2 hPa | 0 mm | - | - | - |
| 1787848785 | 21.11° C | 56% | 1036 hPa | 0 mm | - | - | - |
| 1787847995 | 21.11° C | 55% | 1036.1 hPa | 0 mm | - | - | - |
| 1787847271 | 22.22° C | 54% | 1036.2 hPa | 0 mm | - | - | - |
| 1787846510 | 22.22° C | 54% | 1036 hPa | 0 mm | - | - | - |
| 1787845650 | 22.22° C | 53% | 1036.1 hPa | 0 mm | - | - | - |
| 1787844758 | 22.22° C | 53% | 1035.9 hPa | 0 mm | - | - | - |
| 1787843899 | 22.78° C | 51% | 1035.9 hPa | 0 mm | - | - | - |
* Rain latest hour (hover to see other rain measurements)
** Current wind speed in m/s (hover to see current wind gust speed)